www.pogodaiklimat.ru

Погода и климат >> Архив погоды >> Бельгия >> Эрнаж


ПОГОДА в Эрнаже

  • Прогноз погоды в Эрнаже
  • Монитор погоды в Эрнаже

АРХИВ ПОГОДЫ в Эрнаже

Время (UTC), дата Ветер
(напр.,м/с)
 
Видим.   Явления Облачность Т
(С)
Тd
(С)
f
(%)
Тe
(С)
Тes
(С)
Комфортность P
(гПа)
Po
(гПа)
Тmin
(С)
Tmax
(С)
R
(мм)
R24
(мм)
S
(см)
11 12.01 ЮЗ 6 н/о н/о +6.0 +3.7 85 +1 +1 1022.3 1002.5 14
10 12.01 ЮЗ 6 н/о н/о +5.4 +3.6 88 0 0 1023.8 1003.9 14
12 12.01 ЮЗ 6 н/о н/о +6.0 +4.8 92 +1 +1 1021.8 1002.0 18
13 12.01 ЮЗ 7 н/о н/о +5.7 +5.2 97 0 0 1020.5 1000.7 8
14 12.01 ЮЗ 6 н/о н/о +5.9 +5.8 99 +1 +1 1019.5 999.7 8
15 12.01 З 8 н/о н/о +6.7 +6.6 99 +1 +1 1018.7 999.0 3
17 12.01 З 7 н/о н/о +7.0 +6.5 97 +2 +2 1018.1 998.4
16 12.01 З 9 н/о н/о +7.2 +6.8 97 +2 +2 1018.3 998.6 1
18 12.01 З 6 н/о н/о +7.0 +6.5 97 +2 +2 1018.0 998.4 +7.2
19 12.01 З 6 н/о н/о +7.0 +6.4 96 +2 +2 1017.9 998.2
20 12.01 З 6 н/о н/о +6.9 +6.3 96 +2 +2 1017.6 997.9
21 12.01 З 6 н/о н/о +6.8 +5.9 94 +2 +2 1017.4 997.7
23 12.01 З 6 н/о н/о +6.7 +6.0 95 +2 +2 1016.9 997.3
22 12.01 З 6 н/о н/о +6.8 +6.0 95 +2 +2 1017.0 997.4
00 13.01 З 6 н/о н/о +6.5 +6.1 97 +2 +2 1016.2 996.6 7
01 13.01 З 6 н/о н/о +6.4 +6.2 99 +2 +2 1016.0 996.3
02 13.01 З 6 н/о н/о +6.5 +6.4 99 +2 +2 1015.5 995.8
03 13.01 З 6 н/о н/о +6.8 +6.7 99 +2 +2 1015.0 995.4
05 13.01 З 6 н/о н/о +7.3 +7.3 100 +3 +3 1013.7 994.1
04 13.01 З 6 н/о н/о +7.1 +7.1 100 +2 +2 1014.6 995.0
06 13.01 З 7 н/о н/о +7.6 +7.6 100 +3 +3 1012.6 993.1 +6.4
07 13.01 З 7 н/о н/о +7.7 +7.5 99 +3 +3 1012.8 993.3
08 13.01 З 8 н/о н/о +7.8 +6.9 94 +3 +3 1012.8 993.3
09 13.01 З 7 н/о н/о +8.1 +6.9 92 +4 +4 1012.3 992.8 3
11 13.01 З 8 н/о н/о +8.7 +7.2 90 +4 +4 1011.1 991.7 11
10 13.01 З 8 н/о н/о +8.4 +7.1 92 +4 +4 1011.8 992.4 8
12 13.01 З 8 н/о н/о +8.7 +7.6 93 +4 +4 1010.1 990.7 11
13 13.01 З 8 н/о н/о +8.8 +8.0 95 +4 +4 1009.2 989.8 12
14 13.01 З 8 н/о н/о +8.6 +8.2 97 +4 +4 1008.5 989.2 8
15 13.01 З 9 н/о н/о +8.5 +8.1 97 +3 +3 1007.9 988.5 5
17 13.01 З 8 н/о н/о +8.7 +7.3 91 +4 +4 1008.3 988.9
16 13.01 З 8 н/о н/о +8.4 +7.9 97 +4 +4 1008.4 989.0 2
18 13.01 З 8 н/о н/о +8.6 +7.1 90 +4 +4 1007.8 988.4 +8.8
19 13.01 З 9 н/о н/о +8.5 +7.2 92 +4 +4 1007.4 988.0
20 13.01 З 10 н/о н/о +8.6 +7.1 90 +3 +3 1007.4 988.0
21 13.01 СЗ 9 н/о н/о +8.2 +6.7 90 +3 +3 1008.1 988.7
23 13.01 СЗ 8 н/о н/о +7.3 +4.1 80 +2 +2 1009.1 989.6
22 13.01 СЗ 6 н/о н/о +7.3 +6.1 92 +3 +3 1008.3 988.9
00 14.01 СЗ 8 н/о н/о +7.1 +4.0 81 +2 +2 1009.8 990.3 6
01 14.01 СЗ 8 н/о н/о +6.9 +3.4 78 +2 +2 1010.4 990.8
02 14.01 СЗ 8 н/о н/о +6.6 +3.6 81 +1 +1 1011.2 991.6
03 14.01 З 6 н/о н/о +6.3 +4.2 86 +2 +2 1011.8 992.2
05 14.01 З 6 н/о н/о +6.2 +3.9 85 +1 +1 1012.8 993.2
04 14.01 СЗ 6 н/о н/о +6.3 +3.9 85 +2 +2 1012.5 992.9
06 14.01 З 6 н/о н/о +6.0 +3.8 86 +1 +1 1013.5 993.8 +6.0
07 14.01 З 7 н/о н/о +5.8 +3.7 86 +1 +1 1014.1 994.4
08 14.01 З 6 н/о н/о +5.6 +3.6 87 +1 +1 1014.9 995.2
09 14.01 З 7 н/о н/о +5.5 +3.7 88 0 0 1015.8 996.1 6
11 14.01 З 6 н/о н/о +5.3 +4.4 94 0 0 1017.2 997.4 20
10 14.01 З 6 н/о н/о +5.6 +4.1 90 +1 +1 1016.6 996.8 17
12 14.01 СЗ 5 н/о н/о +5.8 +4.5 91 +1 +1 1017.6 997.9 38
13 14.01 СЗ 7 н/о н/о +6.0 +2.1 76 +1 +1 1018.2 998.4 53
14 14.01 СЗ 7 н/о н/о +6.2 +1.6 72 +1 +1 1018.5 998.7 39
15 14.01 С 5 н/о н/о +5.8 +2.9 82 +1 +1 1019.5 999.7 43
17 14.01 СЗ 4 н/о н/о +4.3 +1.1 80 0 0 1021.2 1001.3
16 14.01 СЗ 5 н/о н/о +4.4 +1.2 80 -0 -0 1020.7 1000.8 6
18 14.01 З 2 н/о н/о +2.8 +1.2 89 -0 -0 1021.7 1001.6 +6.8
19 14.01 З 2 н/о н/о +3.2 +1.9 91 0 0 1022.1 1002.1
20 14.01 З 3 н/о н/о +2.9 +2.0 94 -1 -1 1022.5 1002.5
21 14.01 З 2 н/о н/о +3.2 +2.5 95 0 0 1022.7 1002.7
23 14.01 ЮЗ 3 н/о н/о +3.2 +2.6 96 -1 -1 1023.1 1003.1
22 14.01 З 2 н/о н/о +3.1 +2.6 97 -0 -0 1023.0 1002.9
00 15.01 ЮЗ 3 н/о н/о +3.0 +2.3 95 -1 -1 1023.1 1003.1 22
01 15.01 ЮЗ 3 н/о н/о +3.1 +2.6 97 -1 -1 1023.0 1002.9
02 15.01 ЮЗ 3 н/о н/о +2.5 +2.2 98 -2 -2 1023.1 1003.1
03 15.01 ЮЗ 4 н/о н/о +2.8 +2.7 99 -2 -2 1023.1 1003.1
05 15.01 ЮЗ 3 н/о н/о +3.3 +3.0 98 -1 -1 1022.5 1002.5
04 15.01 ЮЗ 4 н/о н/о +3.3 +3.2 99 -2 -2 1022.7 1002.7
06 15.01 ЮЗ 4 н/о н/о +3.7 +3.3 97 -1 -1 1022.0 1002.0 +2.3
07 15.01 ЮЗ 4 н/о н/о +4.0 +3.4 96 -1 -1 1022.0 1002.1
08 15.01 ЮЗ 4 н/о н/о +4.2 +3.4 95 -0 -0 1022.0 1002.1
09 15.01 ЮЗ 4 н/о н/о +4.5 +3.5 93 0 0 1022.1 1002.2 14
11 15.01 ЮЗ 7 н/о н/о +6.1 +3.2 82 +1 +1 1021.9 1002.1 44
10 15.01 ЮЗ 5 н/о н/о +5.1 +3.5 89 0 0 1022.1 1002.2 33
12 15.01 ЮЗ 6 н/о н/о +6.1 +3.3 82 +1 +1 1021.3 1001.5 45
13 15.01 ЮЗ 7 н/о н/о +6.4 +3.3 81 +1 +1 1020.7 1001.0 39
14 15.01 ЮЗ 5 н/о н/о +5.9 +4.2 89 +1 +1 1020.6 1000.8 17
15 15.01 ЮЗ 5 н/о н/о +5.9 +3.9 87 +1 +1 1020.6 1000.8 6
17 15.01 ЮЗ 5 н/о н/о +5.3 +4.4 94 +1 +1 1020.1 1000.3
16 15.01 ЮЗ 6 н/о н/о +5.4 +4.4 93 0 0 1020.5 1000.7 1
18 15.01 ЮЗ 5 н/о н/о +5.4 +4.3 93 +1 +1 1020.0 1000.2 +6.4
19 15.01 ЮЗ 6 н/о н/о +5.4 +4.9 97 0 0 1019.7 999.8
20 15.01 ЮЗ 6 н/о н/о +5.5 +4.9 96 0 0 1019.3 999.5
21 15.01 ЮЗ 5 н/о н/о +5.2 +4.5 95 0 0 1019.1 999.3
23 15.01 ЮЗ 5 н/о н/о +5.1 +4.1 93 0 0 1018.2 998.4
22 15.01 ЮЗ 5 н/о н/о +5.2 +4.3 94 0 0 1018.8 999.0
00 16.01 ЮЗ 5 н/о н/о +5.5 +3.6 88 +1 +1 1017.7 997.9 20
01 16.01 Ю 5 н/о н/о +5.4 +3.3 86 +1 +1 1017.2 997.4
02 16.01 ЮЗ 5 н/о н/о +5.5 +3.0 84 +1 +1 1017.0 997.3
03 16.01 ЮЗ 4 н/о н/о +5.4 +2.9 84 +1 +1 1016.3 996.6
05 16.01 ЮЗ 5 н/о н/о +5.1 +2.4 83 +1 +1 1015.0 995.2
04 16.01 Ю 5 н/о н/о +5.3 +2.5 82 +1 +1 1015.6 995.8
06 16.01 Ю 6 н/о н/о +5.0 +2.1 81 -0 -0 1014.4 994.6 +5.0
07 16.01 Ю 5 н/о н/о +4.6 +2.3 85 -0 -0 1014.1 994.3
08 16.01 Ю 5 н/о н/о +4.3 +2.1 86 -1 -1 1013.7 993.9
09 16.01 Ю 6 н/о н/о +4.4 +1.4 81 -1 -1 1013.4 993.6 3
11 16.01 ЮЗ 7 н/о н/о +5.0 +1.3 77 -0 -0 1012.0 992.3 33
10 16.01 Ю 7 н/о н/о +4.5 +1.2 79 -1 -1 1013.0 993.2 12
12 16.01 ЮЗ 6 н/о н/о +5.0 +1.1 76 0 0 1011.0 991.3 29
13 16.01 ЮЗ 7 н/о н/о +5.5 +0.8 72 0 0 1009.6 990.0 51
14 16.01 ЮЗ 7 н/о н/о +5.4 +0.9 73 0 0 1008.6 989.0 40
15 16.01 Ю 6 н/о н/о +5.3 +1.2 75 0 0 1007.6 988.0 27
17 16.01 ЮЗ 6 н/о н/о +4.9 +1.1 76 -0 -0 1007.2 987.5
16 16.01 Ю 6 н/о н/о +5.0 +1.1 76 0 0 1007.5 987.9 11
18 16.01 Ю 7 н/о н/о +4.9 +1.1 76 -1 -1 1006.3 986.7 +5.6
19 16.01 Ю 6 н/о н/о +4.7 +1.6 80 -0 -0 1006.1 986.5
20 16.01 Ю 6 н/о н/о +4.8 +1.5 79 -0 -0 1005.4 985.8
21 16.01 Ю 7 н/о н/о +4.9 +1.7 80 -1 -1 1005.1 985.5
23 16.01 Ю 8 н/о н/о +4.3 +3.7 96 -2 -2 1004.6 985.0
22 16.01 ЮЗ 7 н/о н/о +4.3 +2.9 91 -2 -2 1004.8 985.2
00 17.01 ЮЗ 7 н/о н/о +4.8 +4.2 96 -1 -1 1004.4 984.8 20
01 17.01 ЮЗ 7 н/о н/о +5.0 +4.6 97 -1 -1 1004.6 985.0
02 17.01 ЮЗ 6 н/о н/о +5.1 +4.7 97 -0 -0 1004.7 985.2
03 17.01 ЮЗ 5 н/о н/о +4.9 +4.3 96 0 0 1004.6 985.0
05 17.01 ЮЗ 4 н/о н/о +4.6 +3.6 93 0 0 1004.4 984.8
04 17.01 ЮЗ 4 н/о н/о +4.8 +4.3 97 0 0 1004.6 985.0
06 17.01 Ю 5 н/о н/о +4.5 +3.8 95 -1 -1 1004.2 984.6 +4.2
07 17.01 Ю 4 н/о н/о +3.8 +2.9 94 -1 -1 1003.7 984.1
08 17.01 ЮЗ 6 н/о н/о +4.8 +3.6 92 -1 -1 1003.4 983.8
09 17.01 ЮЗ 8 н/о н/о +4.6 +3.4 92 -2 -2 1003.9 984.3 6
11 17.01 З 8 н/о н/о +3.4 +2.6 94 -3 -3 1005.5 985.8 7
10 17.01 ЮЗ 7 н/о н/о +3.9 +2.8 93 -2 -2 1004.8 985.2 17
12 17.01 З 7 н/о н/о +3.9 +3.1 95 -2 -2 1006.0 986.3 26
13 17.01 СЗ 9 н/о н/о +2.9 +2.1 94 -4 -4 1007.2 987.4 19
14 17.01 СЗ 8 н/о н/о +2.8 +1.4 90 -4 -4 1008.2 988.4 28
15 17.01 З 6 н/о н/о +2.8 +1.4 90 -3 -3 1009.2 989.4 20
17 17.01 З 6 н/о н/о +2.1 -1.1 79 -4 -4 1011.1 991.2
16 17.01 З 8 н/о н/о +2.4 -0.6 81 -4 -4 1010.3 990.4 9
18 17.01 З 10 н/о н/о +1.7 -0.1 88 -6 -6 1012.2 992.2 +4.8
19 17.01 СЗ 5 н/о н/о +0.4 +0.2 99 -6 -6 1013.8 993.7
20 17.01 З 6 н/о н/о +0.8 +0.7 99 -6 -6 1014.6 994.5
21 17.01 З 6 н/о н/о +0.6 +0.3 98 -6 -6 1015.6 995.5
23 17.01 З 5 н/о н/о +0.8 +0.8 100 -5 -5 1016.7 996.6
22 17.01 З 4 н/о н/о +0.7 +0.6 99 -5 -5 1016.2 996.1
00 18.01 З 4 н/о н/о +0.9 +0.9 100 -5 -5 1017.4 997.3 13
01 18.01 З 4 н/о н/о +0.6 +0.6 100 -5 -5 1017.7 997.5
02 18.01 З 4 н/о н/о +0.3 +0.3 100 -5 -5 1018.4 998.3
03 18.01 З 4 н/о н/о +0.3 +0.3 100 -5 -5 1018.8 998.6
05 18.01 З 2 н/о н/о -0.4 -0.4 100 -4 -4 1019.5 999.2
04 18.01 З 3 н/о н/о +0.1 +0.1 100 -5 -5 1019.4 999.2
06 18.01 ЮЗ 2 н/о н/о -0.7 -0.7 100 -5 -5 1019.8 999.6 -0.7
07 18.01 Ю 2 н/о н/о -0.9 -0.9 100 -5 -5 1020.1 999.8
08 18.01 Ю 2 н/о н/о -0.9 -0.9 100 -5 -5 1020.6 1000.3
09 18.01 ЮВ 2 н/о н/о -0.5 -0.5 100 -5 -5 1021.2 1000.9 9
11 18.01 Ю 3 н/о н/о +0.4 +0.4 100 -4 -4 1021.8 1001.6 34
10 18.01 Ю 2 н/о н/о -0.2 -0.2 100 -4 -4 1021.8 1001.5 22
12 18.01 ЮВ 4 н/о н/о +0.6 +0.6 100 -5 -5 1021.3 1001.1 50
13 18.01 Ю 4 н/о н/о +1.2 +1.2 100 -4 -4 1020.8 1000.7 53
14 18.01 ЮВ 3 н/о н/о +2.8 +1.1 89 -1 -1 1020.4 1000.4 74
15 18.01 Ю 2 н/о н/о +3.5 +0.3 80 +1 +1 1020.0 1000.1 47
17 18.01 ЮВ 1 н/о н/о +0.5 -0.9 90 -2 -2 1020.1 999.9
16 18.01 Ю 1 н/о н/о +2.3 -0.7 81 +1 +1 1020.1 1000.0 13
18 18.01 ЮВ 1 н/о н/о -0.6 -1.3 95 -3 -3 1019.8 999.6 +3.5
19 18.01 ЮВ 2 н/о н/о -0.8 -1.1 98 -5 -5 1020.0 999.7
20 18.01 ЮВ 2 н/о н/о -0.7 -1.2 96 -5 -5 1019.8 999.6
21 18.01 ЮВ 3 н/о н/о -0.5 -1.6 92 -5 -5 1019.7 999.5
23 18.01 ЮВ 2 н/о н/о -1.2 -1.9 95 -5 -5 1019.4 999.1
22 18.01 ЮВ 1 н/о н/о -1.0 -2.2 92 -3 -3 1019.6 999.3
00 19.01 ЮВ 2 н/о н/о -1.0 -1.9 94 -5 -5 1019.0 998.7 30
01 19.01 ЮВ 2 н/о н/о -1.2 -2.8 89 -5 -5 1018.7 998.4
02 19.01 В 3 н/о н/о -1.5 -3.0 89 -7 -7 1018.3 998.0
03 19.01 ЮВ 2 н/о н/о -1.7 -3.4 88 -6 -6 1017.9 997.5
05 19.01 В 2 н/о н/о -2.0 -3.5 89 -6 -6 1017.2 996.9
04 19.01 ЮВ 1 н/о н/о -2.1 -3.5 90 -4 -4 1017.5 997.2
06 19.01 В 3 н/о н/о -2.2 -3.3 92 -7 -7 1016.8 996.4 -2.3
07 19.01 ЮВ 2 н/о н/о -2.2 -3.6 90 -6 -6 1016.5 996.2
08 19.01 ЮВ 1 н/о н/о -2.7 -3.9 91 -5 -5 1016.7 996.3
09 19.01 ЮВ 2 н/о н/о -1.6 -2.7 92 -6 -6 1016.6 996.3 10

 

Местоположение метеостанции Эрнаж (Бельгия): широта 50.67 долгота 4.68 высота над уровнем моря 158 м.

В архиве по умолчанию представлена погода в Эрнаже за последнюю неделю. Архивные данные за месяц целиком и за предыдущие месяцы, начиная с января 2011 года, Вы можете получить, выбрав интересующий диапазон дат из раскрывающегося списка и нажав кнопку "Ввод!".


*Определитесь, кто Вы:
робот инопланетянин человек

Внимание! Время в таблицах - всемирное. Для получения местного времени необходимо прибавить поправку, которая равна 1 ч.

Смотрите также архив погоды в соседних городах и на ближайших метеорологических станциях:

Погода в Бовешене (Бельгия) (11 км)
Погода в Уккеле (Бельгия) (27 км)
Погода в Шарлеруа (Бельгия) (28 км)
Погода в Брюсселе (Бельгия) (28 км)
Погода в Шаффене (Бельгия) (46 км)
Погода во Флорене (Бельгия) (49 км)
Погода в Бьерсете (Бельгия) (54 км)
Погода в Антверпене (Бельгия) (61 км)
Погода в Дипенбеке (Бельгия) (61 км)
Погода в Шьевре (Бельгия) (61 км)

Пояснения к столбцам:

Ветер - указаны скорость ветра в м/с - средняя за 10 мин, порывы в срок и между сроками (в фигурных скобках) и направление, откуда дует ветер: С - северный, СВ - северо-восточный, В - восточный, ЮВ - юго-восточный, Ю - южный, ЮЗ - юго-западный, З - западный, СЗ - северо-западный.
Видимость - горизонтальная дальность видимости в метрах или километрах. При видимости от 1 до 10 км при отсутствии осадков обычно наблюдается дымка, при ухудшении видимости до 1 км и менее - туман. В сухую погоду видимость может ухудшаться дымом, пылью или мглою.
Явления - указаны атмосферные явления, наблюдавшиеся в срок или в последний час перед сроком; фигурными скобками обозначены явления, наблюдавшиеся между сроками (за 1-3 часа до срока); квадратными скобками обозначены град или гололедные отложения с указанием их диаметра в мм.
Облачность - указаны через наклонную черту общая и нижняя облачность в баллах и высота нижней границы облаков в метрах; квадратными скобками обозначены формы облаков: Ci - перистые, Cs - перисто-слоистые, Cc - перисто-кучевые, Ac - высококучевые, As - высокослоистые, Sc - слоисто-кучевые, Ns - слоисто-дождевые, Cu - кучевые, Cb - кучево-дождевые. Подробнее классификацию облаков см. в Атласе облаков (PDF).
T - Температура воздуха - температура, измеренная на высоте 2 м над землей.
Td - Температура точки росы - температура, при понижении до которой содержащийся в воздухе водяной пар достигнет насыщения.
f - Относительная влажность воздуха - влажноcть воздуха, измеренная на высоте 2 м над землей.
Te - Эффективная температура - температура, которую ощущает одетый по сезону человек в тени. Характеристика душности погоды. При расчете учитывается влияние влажности воздуха и скорости ветра на теплоощущения человека.
Tes - Эффективная температура на солнце - температура, которую ощущает человек, с поправкой на солнечный нагрев. Характеристика знойности погоды. Зависит от высоты солнца над горизонтом, облачности и скорости ветра. Ночью, в пасмурную погоду, а также при ветре 12 м/с и более поправка равна нулю.
P - Атмосферное давление - приведенное к уровню моря атмосферное давление.
Po - Атмосферное давление - измеренное на уровне метеостанции атмосферное давление.
Tmin - Минимальная температура - минимум температуры воздуха на высоте 2 м над землей.
Tmax - Максимальная температура - максимум температуры воздуха на высоте 2 м над землей.
R - Количество осадков - Количество выпавших осадков за период времени, мм. При наведении курсора мыши на число - период времени, за который выпало указанное количество осадков.
R24 - Количество осадков - Количество выпавших осадков за 24 часа, мм.
S - Снежный покров - Высота снежного покрова, см. При наведении курсора мыши на число - состояние снежного покрова и степень покрытия местности в баллах.